FW2547 Weather Reports


time (UTC)temp
C
wind
direction
speed
KPH
gust
KPH
rain 1hr
cm
rain 24hr
cm
rain mn
cm
humidity
%
barometer
mb
20260506231535 25 304 19.3 41.8 0.00 0.00 0.00 16 1008.5
20260506230032 25 305 14.5 38.6 0.00 0.00 0.00 16 1008.5
20260506224531 25 321 12.9 33.8 0.00 0.00 0.00 16 1008.7
20260506223029 25 279 29.0 41.8 0.00 0.00 0.00 16 1008.8
20260506221526 24 304 25.7 37.0 0.00 0.00 0.00 16 1008.9
20260506220024 24 311 20.9 46.7 0.00 0.00 0.00 17 1008.9
20260506214522 24 309 20.9 38.6 0.00 0.00 0.00 17 1008.9
20260506213020 24 302 22.5 37.0 0.00 0.00 0.00 17 1009.2
20260506211518 24 300 29.0 46.7 0.00 0.00 0.00 17 1009.3
20260506210017 23 279 30.6 45.1 0.00 0.00 0.00 17 1009.5
20260506204520 23 309 20.9 41.8 0.00 0.00 0.00 19 1009.7
20260506203017 23 251 16.1 41.8 0.00 0.00 0.00 19 1009.8
20260506201517 23 282 27.4 46.7 0.00 0.00 0.00 19 1010.0
20260506200012 23 267 30.6 40.2 0.00 0.00 0.00 19 1010.2
20260506194516 22 309 27.4 41.8 0.00 0.00 0.00 21 1010.3
20260506193009 22 295 19.3 35.4 0.00 0.00 0.00 21 1010.5
20260506191508 22 263 24.1 40.2 0.00 0.00 0.00 21 1010.6
20260506190006 22 301 16.1 40.2 0.00 0.00 0.00 22 1010.9
20260506184504 21 270 22.5 53.1 0.00 0.00 0.00 23 1011.1
20260506183000 21 271 16.1 41.8 0.00 0.00 0.00 23 1011.1
20260506181559 21 294 24.1 35.4 0.00 0.00 0.00 22 1011.2
20260506180105 21 304 30.6 40.2 0.00 0.00 0.00 24 1011.3
20260506174556 21 254 25.7 41.8 0.00 0.00 0.00 25 1011.4
20260506173057 20 286 22.5 38.6 0.00 0.00 0.00 25 1011.6
20260506171551 20 293 16.1 35.4 0.00 0.00 0.00 29 1011.5
20260506170057 20 286 19.3 38.6 0.00 0.00 0.00 30 1011.4
20260506164541 19 261 19.3 35.4 0.00 0.00 0.00 32 1011.5
20260506163056 19 287 22.5 32.2 0.00 0.00 0.00 33 1011.5
20260506161534 19 268 12.9 32.2 0.00 0.00 0.00 33 1011.5
20260506160031 18 313 17.7 32.2 0.00 0.00 0.00 34 1011.8
20260506154526 18 302 12.9 29.0 0.00 0.00 0.00 35 1011.7
20260506153021 18 329 14.5 24.1 0.00 0.00 0.00 35 1011.8
20260506151516 17 340 9.7 27.4 0.00 0.00 0.00 36 1011.8
20260506150012 17 293 12.9 22.5 0.00 0.00 0.00 37 1011.7
20260506144508 16 283 12.9 17.7 0.00 0.00 0.00 38 1011.9
20260506143004 16 300 11.3 17.7 0.00 0.00 0.00 39 1011.8
20260506141559 16 302 9.7 17.7 0.00 0.00 0.00 40 1011.8
20260506140058 15 303 11.3 19.3 0.00 0.00 0.00 41 1011.7
20260506134550 15 265 12.9 19.3 0.00 0.00 0.00 42 1011.6
20260506133045 15 295 14.5 19.3 0.00 0.00 0.00 42 1011.4
20260506131541 15 292 9.7 16.1 0.00 0.00 0.00 43 1011.4
20260506130037 14 316 8.0 16.1 0.00 0.00 0.00 43 1011.1
20260506124532 14 306 9.7 16.1 0.00 0.00 0.00 43 1010.9
20260506123033 14 307 9.7 14.5 0.00 0.00 0.00 43 1010.6
20260506121525 14 261 6.4 12.9 0.00 0.00 0.00 43 1010.4
20260506120023 15 259 6.4 12.9 0.00 0.00 0.00 41 1010.3
20260506114519 15 281 8.0 14.5 0.00 0.00 0.00 41 1010.2
20260506113016 15 282 11.3 17.7 0.00 0.00 0.00 40 1010.0
20260506111514 15 300 11.3 17.7 0.00 0.00 0.00 40 1009.7
20260506110010 15 279 12.9 19.3 0.00 0.00 0.00 39 1009.4
20260506104508 16 290 11.3 17.7 0.00 0.00 0.00 39 1009.3
20260506103005 16 291 12.9 17.7 0.00 0.00 0.00 38 1009.2
20260506101506 16 287 11.3 19.3 0.00 0.00 0.00 37 1009.1
20260506100059 16 300 14.5 19.3 0.00 0.00 0.00 36 1009.0
20260506094622 17 297 8.0 16.1 0.00 0.00 0.00 36 1009.0
20260506093056 17 309 12.9 19.3 0.00 0.00 0.00 35 1008.9
20260506091552 17 305 14.5 24.1 0.00 0.00 0.00 34 1008.6
20260506090047 17 300 12.9 22.5 0.00 0.00 0.00 32 1008.4
20260506084547 18 294 12.9 20.9 0.00 0.00 0.00 31 1008.2
20260506083043 18 295 16.1 25.7 0.00 0.00 0.00 29 1008.2
20260506081541 18 289 12.9 25.7 0.00 0.00 0.00 28 1008.1
20260506073042 19 286 17.7 29.0 0.00 0.00 0.00 26 1007.9
20260506071534 20 277 20.9 29.0 0.00 0.00 0.00 26 1007.8
20260506061528 21 279 29.0 48.3 0.00 0.00 0.00 22 1007.6
20260506044513 22 285 29.0 48.3 0.00 0.00 0.00 20 1007.0
20260506043012 22 283 25.7 45.1 0.00 0.00 0.00 20 1006.8
20260506041512 22 274 22.5 33.8 0.00 0.00 0.00 19 1006.8
20260506040032 22 271 25.7 33.8 0.00 0.00 0.00 18 1006.6
20260506034510 22 294 20.9 35.4 0.00 0.00 0.00 17 1006.3
20260506033009 23 292 22.5 41.8 0.00 0.00 0.00 17 1006.1
20260506031521 23 288 20.9 37.0 0.00 0.00 0.00 18 1005.6
20260506030008 23 259 27.4 45.1 0.00 0.00 0.00 16 1005.3
20260506024516 23 266 29.0 46.7 0.00 0.00 0.00 17 1005.1
20260506023006 24 240 30.6 43.5 0.00 0.00 0.00 19 1004.9
20260506021506 24 221 19.3 41.8 0.00 0.00 0.00 21 1004.6
20260506020003 24 269 16.1 32.2 0.00 0.00 0.00 21 1004.5
20260506014503 24 266 22.5 43.5 0.00 0.00 0.00 19 1004.4
20260506013002 25 269 30.6 48.3 0.00 0.00 0.00 19 1004.2
20260506011502 25 268 32.2 46.7 0.00 0.00 0.00 20 1004.2
20260506010101 25 271 27.4 46.7 0.00 0.00 0.00 19 1004.2
20260506004600 25 236 27.4 51.5 0.00 0.00 0.00 19 1004.0
20260506003059 25 261 27.4 51.5 0.00 0.00 0.00 18 1003.8
20260506001558 25 287 29.0 54.7 0.00 0.00 0.00 19 1003.9
20260506000101 25 300 25.7 48.3 0.00 0.00 0.00 22 1003.8
20260505234603 25 291 30.6 48.3 0.00 0.00 0.00 23 1003.8
20260505233108 25 264 24.1 37.0 0.00 0.00 0.00 27 1003.7